EW3662 Weather Reports


time (UTC)temp
C
wind
direction
speed
KPH
gust
KPH
rain 1hr
cm
rain 24hr
cm
rain mn
cm
humidity
%
barometer
mb
20260906212429 32 0 4.8 12.9 0.00 0.00 0.00 40 1015.4
20260906211929 32 0 6.4 12.9 0.00 0.00 0.00 36 1015.6
20260906211428 32 0 6.4 14.5 0.00 0.00 0.00 35 1015.6
20260906210926 31 0 3.2 14.5 0.00 0.00 0.00 39 1015.7
20260906210428 31 115 4.8 11.3 0.00 0.00 0.00 39 1015.8
20260906205926 32 0 6.4 14.5 0.00 0.00 0.00 38 1015.8
20260906205426 32 0 4.8 14.5 0.00 0.00 0.00 38 1015.8
20260906204926 31 0 4.8 12.9 0.00 0.00 0.00 38 1015.9
20260906204426 31 0 4.8 12.9 0.00 0.00 0.00 41 1015.9
20260906203924 31 0 4.8 11.3 0.00 0.00 0.00 40 1016.0
20260906203426 31 0 4.8 12.9 0.00 0.00 0.00 43 1016.0
20260906203155 31 0 4.8 12.9 0.00 0.00 0.00 40 1016.1
20260906202424 31 0 6.4 12.9 0.00 0.00 0.00 44 1016.0
20260906201925 31 0 6.4 12.9 0.00 0.00 0.00 40 1016.1
20260906201422 31 0 4.8 11.3 0.00 0.00 0.00 42 1016.1
20260906200922 31 0 4.8 11.3 0.00 0.00 0.00 41 1016.4
20260906200422 30 0 3.2 11.3 0.00 0.00 0.00 39 1016.5
20260906195922 30 0 1.6 9.7 0.00 0.00 0.00 40 1016.5
20260906195421 30 0 4.8 12.9 0.00 0.00 0.00 41 1016.6
20260906194920 30 0 6.4 14.5 0.00 0.00 0.00 40 1016.6
20260906194425 30 0 3.2 14.5 0.00 0.00 0.00 42 1016.6
20260906194420 30 0 6.4 14.5 0.00 0.00 0.00 39 1016.6
20260906193419 30 0 3.2 11.3 0.00 0.00 0.00 46 1016.6
20260906192920 30 0 3.2 12.9 0.00 0.00 0.00 43 1016.7
20260906192416 30 88 1.6 12.9 0.00 0.00 0.00 47 1016.7
20260906191916 30 0 3.2 12.9 0.00 0.00 0.00 45 1016.8
20260906191647 29 0 3.2 12.9 0.00 0.00 0.00 50 1016.9
20260906191144 29 0 3.2 11.3 0.00 0.00 0.00 49 1017.1
20260906190414 29 0 4.8 11.3 0.00 0.00 0.00 47 1017.2
20260906190145 29 0 3.2 11.3 0.00 0.00 0.00 48 1017.4
20260906185415 28 0 3.2 8.0 0.00 0.00 0.00 49 1017.6
20260906184916 28 0 3.2 9.7 0.00 0.00 0.00 49 1017.8
20260906184413 28 0 3.2 9.7 0.00 0.00 0.00 49 1017.8
20260906183912 28 0 3.2 9.7 0.00 0.00 0.00 49 1017.9
20260906183649 28 0 1.6 8.0 0.00 0.00 0.00 56 1018.0
20260906183412 28 0 1.6 9.7 0.00 0.00 0.00 50 1017.9
20260906182413 27 0 0.0 4.8 0.00 0.00 0.00 54 1018.2
20260906181912 27 0 1.6 11.3 0.00 0.00 0.00 54 1018.3
20260906181412 27 0 3.2 11.3 0.00 0.00 0.00 55 1018.3
20260906180912 27 0 1.6 9.7 0.00 0.00 0.00 55 1018.3
20260906180412 27 0 1.6 9.7 0.00 0.00 0.00 56 1018.6
20260906175911 27 0 1.6 9.7 0.00 0.00 0.00 55 1018.6
20260906175643 26 0 1.6 9.7 0.00 0.00 0.00 57 1018.7
20260906174910 26 0 1.6 9.7 0.00 0.00 0.00 56 1018.8
20260906174642 26 219 1.6 8.0 0.00 0.00 0.00 58 1018.9
20260906174148 26 0 1.6 9.7 0.00 0.00 0.00 56 1019.1
20260906173909 26 0 1.6 9.7 0.00 0.00 0.00 56 1019.0
20260906173143 26 0 3.2 11.3 0.00 0.00 0.00 60 1019.3
20260906172410 25 0 3.2 11.3 0.00 0.00 0.00 57 1019.4
20260906171911 25 0 1.6 9.7 0.00 0.00 0.00 61 1019.4
20260906171410 25 0 1.6 9.7 0.00 0.00 0.00 60 1019.6
20260906170909 25 0 1.6 8.0 0.00 0.00 0.00 58 1019.7
20260906170409 25 0 1.6 8.0 0.00 0.00 0.00 61 1019.7
20260906165910 25 0 1.6 8.0 0.00 0.00 0.00 60 1019.8
20260906165407 25 0 1.6 6.4 0.00 0.00 0.00 58 1019.8
20260906164908 25 0 3.2 11.3 0.00 0.00 0.00 61 1019.6
20260906164408 25 0 3.2 11.3 0.00 0.00 0.00 60 1019.6
20260906163908 25 0 3.2 8.0 0.00 0.00 0.00 59 1019.6
20260906163413 24 0 0.0 6.4 0.00 0.00 0.00 63 1019.6
20260906163408 24 0 1.6 8.0 0.00 0.00 0.00 61 1019.6
20260906162406 24 0 0.0 4.8 0.00 0.00 0.00 67 1019.6
20260906161907 24 0 0.0 8.0 0.00 0.00 0.00 65 1019.6
20260906161636 23 0 1.6 8.0 0.00 0.00 0.00 63 1019.7
20260906160904 23 0 1.6 6.4 0.00 0.00 0.00 61 1019.7
20260906160403 23 0 1.6 8.0 0.00 0.00 0.00 66 1019.8
20260906155904 23 0 0.0 8.0 0.00 0.00 0.00 64 1019.8
20260906155404 23 0 1.6 6.4 0.00 0.00 0.00 64 1019.8
20260906154904 22 0 1.6 6.4 0.00 0.00 0.00 66 1019.7
20260906154402 22 0 1.6 8.0 0.00 0.00 0.00 67 1019.8
20260906153858 22 0 1.6 8.0 0.00 0.00 0.00 68 1019.9
20260906153632 21 0 0.0 4.8 0.00 0.00 0.00 70 1019.9
20260906152900 21 0 0.0 4.8 0.00 0.00 0.00 70 1019.9
20260906152357 21 0 0.0 3.2 0.00 0.00 0.00 73 1020.1
20260906151855 20 0 0.0 1.6 0.00 0.00 0.00 74 1020.1
20260906151623 20 0 0.0 1.6 0.00 0.00 0.00 75 1020.2
20260906151123 19 0 0.0 0.0 0.00 0.00 0.00 78 1020.2
20260906150354 18 0 0.0 1.6 0.00 0.00 0.00 79 1020.2
20260906145850 18 0 0.0 1.6 0.00 0.00 0.00 79 1020.2
20260906145351 18 0 0.0 3.2 0.00 0.00 0.00 77 1020.2
20260906144851 18 0 0.0 3.2 0.00 0.00 0.00 78 1020.3
20260906144351 18 0 0.0 1.6 0.00 0.00 0.00 79 1020.3
20260906143852 18 0 0.0 1.6 0.00 0.00 0.00 79 1020.3
20260906143350 18 0 0.0 1.6 0.00 0.00 0.00 79 1020.2
20260906142850 17 0 0.0 1.6 0.00 0.00 0.00 80 1020.2
20260906142350 17 0 0.0 1.6 0.00 0.00 0.00 82 1020.2
20260906141848 17 0 0.0 1.6 0.00 0.00 0.00 82 1020.2
20260906141348 17 0 0.0 1.6 0.00 0.00 0.00 83 1020.2
20260906140850 17 0 0.0 1.6 0.00 0.00 0.00 83 1020.3
20260906140349 17 0 0.0 1.6 0.00 0.00 0.00 84 1020.3
20260906135849 16 0 0.0 1.6 0.00 0.00 0.00 84 1020.3
20260906135350 16 0 0.0 1.6 0.00 0.00 0.00 84 1020.2
20260906134848 16 0 0.0 1.6 0.00 0.00 0.00 86 1020.1
20260906134347 16 0 0.0 1.6 0.00 0.00 0.00 86 1020.2
20260906133848 16 0 0.0 1.6 0.00 0.00 0.00 86 1020.2
20260906133347 16 0 0.0 0.0 0.00 0.00 0.00 86 1020.1
20260906132848 16 0 0.0 0.0 0.00 0.00 0.00 86 1020.1
20260906132347 16 0 0.0 0.0 0.00 0.00 0.00 86 1020.1
20260906131847 16 0 0.0 0.0 0.00 0.00 0.00 86 1020.1
20260906131347 16 0 0.0 0.0 0.00 0.00 0.00 86 1019.9
20260906130846 16 0 0.0 0.0 0.00 0.00 0.00 86 1019.8
20260906130345 16 0 0.0 1.6 0.00 0.00 0.00 86 1019.9
20260906125845 16 0 0.0 1.6 0.00 0.00 0.00 86 1019.9
20260906125346 16 0 0.0 1.6 0.00 0.00 0.00 85 1019.9
20260906124844 16 0 0.0 1.6 0.00 0.00 0.00 85 1019.9
20260906124343 16 0 0.0 3.2 0.00 0.00 0.00 85 1019.9
20260906123843 16 0 0.0 3.2 0.00 0.00 0.00 85 1019.9
20260906123342 16 0 0.0 3.2 0.00 0.00 0.00 85 1019.8
20260906122842 16 0 0.0 3.2 0.00 0.00 0.00 85 1019.9
20260906122341 16 0 0.0 0.0 0.00 0.00 0.00 85 1019.9
20260906122111 16 0 0.0 0.0 0.00 0.00 0.00 85 1019.9
20260906121340 16 0 0.0 0.0 0.00 0.00 0.00 85 1019.9
20260906120838 16 0 0.0 1.6 0.00 0.00 0.00 85 1019.9
20260906120339 16 0 0.0 1.6 0.00 0.00 0.00 85 1019.8
20260906115839 17 0 0.0 1.6 0.00 0.00 0.00 84 1019.8
20260906115339 17 0 0.0 1.6 0.00 0.00 0.00 85 1019.8
20260906114838 17 0 0.0 1.6 0.00 0.00 0.00 84 1019.8
20260906114340 17 0 0.0 0.0 0.00 0.00 0.00 84 1019.8
20260906113840 17 0 0.0 1.6 0.00 0.00 0.00 84 1019.7
20260906113338 17 0 0.0 1.6 0.00 0.00 0.00 84 1019.8
20260906112839 17 0 0.0 1.6 0.00 0.00 0.00 83 1019.7
20260906112340 17 0 0.0 1.6 0.00 0.00 0.00 82 1019.7
20260906111839 17 0 0.0 1.6 0.00 0.00 0.00 82 1019.7
20260906111340 17 0 0.0 3.2 0.00 0.00 0.00 82 1019.8
20260906110840 17 0 0.0 3.2 0.00 0.00 0.00 82 1019.6
20260906110340 18 0 0.0 1.6 0.00 0.00 0.00 81 1019.6
20260906105838 18 0 0.0 3.2 0.00 0.00 0.00 81 1019.6
20260906105339 18 0 0.0 3.2 0.00 0.00 0.00 80 1019.5
20260906104845 18 0 1.6 4.8 0.00 0.00 0.00 79 1019.4
20260906104840 18 0 0.0 3.2 0.00 0.00 0.00 80 1019.5
20260906103839 18 0 3.2 6.4 0.00 0.00 0.00 79 1019.6
20260906103339 18 0 3.2 11.3 0.00 0.00 0.00 79 1019.6
20260906102840 18 0 1.6 11.3 0.00 0.00 0.00 79 1019.5
20260906102340 18 0 0.0 3.2 0.00 0.00 0.00 78 1019.6
20260906101840 18 0 1.6 3.2 0.00 0.00 0.00 78 1019.7
20260906101337 18 0 1.6 4.8 0.00 0.00 0.00 78 1019.6
20260906100838 18 0 1.6 4.8 0.00 0.00 0.00 77 1019.7
20260906100337 18 0 0.0 3.2 0.00 0.00 0.00 76 1019.7
20260906095837 18 0 0.0 3.2 0.00 0.00 0.00 75 1019.7
20260906095336 19 0 0.0 3.2 0.00 0.00 0.00 75 1019.6
20260906094838 19 0 0.0 3.2 0.00 0.00 0.00 75 1019.6
20260906094337 19 0 0.0 3.2 0.00 0.00 0.00 74 1019.5
20260906093837 19 0 1.6 3.2 0.00 0.00 0.00 74 1019.4
20260906093337 19 0 0.0 3.2 0.00 0.00 0.00 74 1019.3
20260906092836 19 0 0.0 3.2 0.00 0.00 0.00 74 1019.1
20260906092336 19 0 0.0 1.6 0.00 0.00 0.00 74 1019.1
20260906091838 19 0 0.0 1.6 0.00 0.00 0.00 73 1019.0
20260906091336 19 0 0.0 3.2 0.00 0.00 0.00 73 1019.0
20260906090837 19 0 0.0 3.2 0.00 0.00 0.00 73 1019.1
20260906090336 19 0 0.0 1.6 0.00 0.00 0.00 73 1019.0
20260906085837 19 0 0.0 1.6 0.00 0.00 0.00 73 1019.0
20260906085610 19 0 0.0 3.2 0.00 0.00 0.00 73 1019.0
20260906085108 19 0 0.0 3.2 0.00 0.00 0.00 73 1018.9
20260906084337 19 0 0.0 3.2 0.00 0.00 0.00 73 1018.9
20260906084109 19 0 0.0 3.2 0.00 0.00 0.00 74 1018.9
20260906083337 19 20 0.0 3.2 0.00 0.00 0.00 73 1018.9
20260906083109 19 0 0.0 1.6 0.00 0.00 0.00 72 1019.0
20260906082338 19 0 0.0 3.2 0.00 0.00 0.00 72 1019.0
20260906081838 19 0 0.0 3.2 0.00 0.00 0.00 73 1019.1
20260906081608 18 0 0.0 3.2 0.00 0.00 0.00 71 1019.1
20260906080838 18 0 0.0 1.6 0.00 0.00 0.00 73 1019.1
20260906080337 18 0 0.0 3.2 0.00 0.00 0.00 71 1019.1
20260906075837 18 0 0.0 3.2 0.00 0.00 0.00 72 1019.0
20260906075337 18 0 1.6 4.8 0.00 0.00 0.00 71 1019.1
20260906074837 18 0 1.6 4.8 0.00 0.00 0.00 70 1019.1
20260906074337 19 0 1.6 4.8 0.00 0.00 0.00 71 1018.9
20260906073838 19 0 1.6 4.8 0.00 0.00 0.00 69 1018.9
20260906073341 19 0 1.6 4.8 0.00 0.00 0.00 67 1019.1
20260906073337 19 0 1.6 4.8 0.00 0.00 0.00 69 1018.9
20260906072336 19 0 1.6 4.8 0.00 0.00 0.00 66 1019.1
20260906071843 19 0 1.6 4.8 0.00 0.00 0.00 64 1019.0
20260906071838 19 0 1.6 4.8 0.00 0.00 0.00 64 1019.1
20260906070837 20 0 3.2 8.0 0.00 0.00 0.00 64 1019.0
20260906070337 20 0 3.2 8.0 0.00 0.00 0.00 64 1019.1
20260906070110 20 0 3.2 8.0 0.00 0.00 0.00 62 1019.4
20260906065337 20 0 3.2 8.0 0.00 0.00 0.00 61 1019.4
20260906065107 20 0 4.8 8.0 0.00 0.00 0.00 62 1019.4
20260906064954 20 0 4.8 9.7 0.00 0.00 0.00 62 1019.3
20260906063836 20 0 1.6 9.7 0.00 0.00 0.00 64 1019.3
20260906063336 20 0 0.0 6.4 0.00 0.00 0.00 62 1019.3
20260906062837 20 0 1.6 6.4 0.00 0.00 0.00 62 1019.1
20260906062608 20 0 1.6 6.4 0.00 0.00 0.00 61 1019.4
20260906062108 20 0 1.6 6.4 0.00 0.00 0.00 62 1019.5
20260906061337 20 0 3.2 9.7 0.00 0.00 0.00 61 1019.3
20260906060838 20 0 3.2 9.7 0.00 0.00 0.00 61 1019.1
20260906060337 20 0 3.2 9.7 0.00 0.00 0.00 63 1019.0
20260906060107 20 0 3.2 9.7 0.00 0.00 0.00 61 1018.8
20260906055336 20 0 3.2 8.0 0.00 0.00 0.00 60 1018.7
20260906054837 20 0 3.2 8.0 0.00 0.00 0.00 60 1018.7
20260906054610 20 0 4.8 8.0 0.00 0.00 0.00 59 1018.7
20260906053837 21 0 3.2 8.0 0.00 0.00 0.00 58 1018.8
20260906053336 21 0 0.0 6.4 0.00 0.00 0.00 57 1018.8
20260906052838 21 0 0.0 3.2 0.00 0.00 0.00 56 1018.9
20260906052336 21 0 1.6 11.3 0.00 0.00 0.00 55 1018.9
20260906051837 21 0 3.2 11.3 0.00 0.00 0.00 56 1018.8
20260906051336 21 0 1.6 8.0 0.00 0.00 0.00 55 1018.8
20260906050836 21 0 1.6 8.0 0.00 0.00 0.00 53 1018.6
20260906050336 21 0 0.0 8.0 0.00 0.00 0.00 52 1018.6
20260906045838 21 0 0.0 4.8 0.00 0.00 0.00 50 1018.3
20260906045337 21 0 0.0 0.0 0.00 0.00 0.00 49 1018.3
20260906044836 21 0 0.0 0.0 0.00 0.00 0.00 48 1018.3
20260906044336 21 0 0.0 0.0 0.00 0.00 0.00 48 1018.2
20260906044107 21 0 0.0 0.0 0.00 0.00 0.00 47 1018.1
20260906043337 22 0 0.0 4.8 0.00 0.00 0.00 47 1018.0
20260906042838 22 0 1.6 6.4 0.00 0.00 0.00 47 1017.9
20260906042337 22 0 3.2 6.4 0.00 0.00 0.00 48 1017.8
20260906042108 22 0 3.2 6.4 0.00 0.00 0.00 48 1017.6
20260906041607 22 0 1.6 8.0 0.00 0.00 0.00 51 1017.6
20260906040836 22 0 1.6 8.0 0.00 0.00 0.00 48 1017.8
20260906040336 22 0 3.2 9.7 0.00 0.00 0.00 46 1018.0
20260906035836 22 0 6.4 11.3 0.00 0.00 0.00 48 1017.6
20260906035337 22 0 6.4 11.3 0.00 0.00 0.00 48 1017.5
20260906034838 22 0 4.8 9.7 0.00 0.00 0.00 48 1017.5
20260906034338 22 0 4.8 9.7 0.00 0.00 0.00 48 1017.5
20260906033836 23 0 4.8 9.7 0.00 0.00 0.00 48 1017.4
20260906033334 23 0 6.4 11.3 0.00 0.00 0.00 47 1017.4
20260906032834 23 0 6.4 11.3 0.00 0.00 0.00 47 1017.4
20260906032335 23 0 6.4 11.3 0.00 0.00 0.00 46 1017.3
20260906031834 23 0 6.4 11.3 0.00 0.00 0.00 46 1017.3
20260906031334 23 0 4.8 9.7 0.00 0.00 0.00 45 1017.3
20260906030834 23 0 4.8 11.3 0.00 0.00 0.00 45 1017.3
20260906030334 23 0 3.2 11.3 0.00 0.00 0.00 43 1017.3
20260906030105 23 0 3.2 8.0 0.00 0.00 0.00 42 1017.3
20260906025335 23 0 3.2 11.3 0.00 0.00 0.00 43 1017.2
20260906025106 23 0 3.2 11.3 0.00 0.00 0.00 46 1017.2
20260906024603 24 0 3.2 14.5 0.00 0.00 0.00 45 1017.1
20260906023832 24 0 4.8 14.5 0.00 0.00 0.00 44 1017.2
20260906023334 24 0 4.8 12.9 0.00 0.00 0.00 42 1017.2
20260906023103 24 0 6.4 12.9 0.00 0.00 0.00 42 1016.9
20260906022331 24 0 6.4 14.5 0.00 0.00 0.00 45 1016.8
20260906021832 24 0 4.8 14.5 0.00 0.00 0.00 43 1016.9
20260906021330 24 0 1.6 8.0 0.00 0.00 0.00 44 1016.8
20260906020828 24 0 3.2 9.7 0.00 0.00 0.00 42 1016.8
20260906020329 25 0 4.8 9.7 0.00 0.00 0.00 45 1016.7
20260906015828 25 0 4.8 9.7 0.00 0.00 0.00 44 1016.6
20260906015328 25 0 6.4 12.9 0.00 0.00 0.00 43 1016.5
20260906014828 25 0 6.4 12.9 0.00 0.00 0.00 43 1016.2
20260906014326 26 0 6.4 11.3 0.00 0.00 0.00 43 1016.4
20260906013828 26 0 6.4 11.3 0.00 0.00 0.00 39 1016.2
20260906013325 26 0 6.4 14.5 0.00 0.00 0.00 39 1016.2
20260906012824 26 0 6.4 14.5 0.00 0.00 0.00 38 1016.2
20260906012318 26 0 6.4 14.5 0.00 0.00 0.00 37 1016.4
20260906011819 27 0 8.0 14.5 0.00 0.00 0.00 37 1016.4
20260906011317 27 0 8.0 17.7 0.00 0.00 0.00 38 1016.4
20260906010812 27 0 8.0 17.7 0.00 0.00 0.00 37 1016.4
20260906010314 27 0 9.7 17.7 0.00 0.00 0.00 36 1016.4
20260906010043 27 0 11.3 17.7 0.00 0.00 0.00 35 1016.4
20260906005313 27 0 11.3 19.3 0.00 0.00 0.00 36 1016.4
20260906004817 28 0 12.9 22.5 0.00 0.00 0.00 36 1016.4
20260906004812 28 0 12.9 19.3 0.00 0.00 0.00 36 1016.4
20260906003810 28 0 14.5 30.6 0.00 0.00 0.00 35 1016.4
20260906003311 28 0 17.7 30.6 0.00 0.00 0.00 34 1016.2
20260906002811 28 0 17.7 30.6 0.00 0.00 0.00 33 1016.2
20260906002310 29 0 19.3 33.8 0.00 0.00 0.00 32 1016.2
20260906001810 30 0 19.3 33.8 0.00 0.00 0.00 31 1016.1
20260906001311 30 0 14.5 29.0 0.00 0.00 0.00 32 1016.0
20260906000809 30 0 8.0 22.5 0.00 0.00 0.00 31 1016.1
20260906000308 31 0 4.8 9.7 0.00 0.00 0.00 33 1016.0
20260905235808 31 0 3.2 8.0 0.00 0.00 0.00 33 1016.0
20260905235540 31 0 1.6 8.0 0.00 0.00 0.00 29 1016.0
20260905235041 32 0 1.6 6.4 0.00 0.00 0.00 32 1015.9
20260905234309 32 0 1.6 4.8 0.00 0.00 0.00 30 1015.9
20260905233809 32 0 1.6 4.8 0.00 0.00 0.00 28 1015.9
20260905233307 32 0 1.6 4.8 0.00 0.00 0.00 26 1015.9
20260905232808 33 0 0.0 3.2 0.00 0.00 0.00 29 1015.8
20260905232306 33 0 1.6 8.0 0.00 0.00 0.00 25 1015.8
20260905231806 33 0 3.2 9.7 0.00 0.00 0.00 26 1015.7
20260905231306 33 0 4.8 9.7 0.00 0.00 0.00 23 1015.6
20260905230806 33 0 3.2 9.7 0.00 0.00 0.00 24 1015.6
20260905230306 33 0 4.8 11.3 0.00 0.00 0.00 24 1015.4
20260905225806 34 0 6.4 12.9 0.00 0.00 0.00 21 1015.4
20260905225307 34 0 3.2 12.9 0.00 0.00 0.00 22 1015.3
20260905224806 34 0 1.6 8.0 0.00 0.00 0.00 25 1015.3
20260905224306 34 0 4.8 12.9 0.00 0.00 0.00 23 1015.3
20260905223804 34 0 8.0 12.9 0.00 0.00 0.00 24 1015.3
20260905223535 35 0 6.4 14.5 0.00 0.00 0.00 20 1015.3
20260905222804 35 0 6.4 14.5 0.00 0.00 0.00 21 1015.3
20260905222306 35 0 6.4 14.5 0.00 0.00 0.00 23 1015.3
20260905222035 35 0 6.4 14.5 0.00 0.00 0.00 22 1015.4
20260905221305 35 148 8.0 14.5 0.00 0.00 0.00 22 1015.4
20260905220806 35 0 8.0 14.5 0.00 0.00 0.00 23 1015.4
20260905220304 35 0 6.4 12.9 0.00 0.00 0.00 21 1015.4
20260905215804 35 0 4.8 11.3 0.00 0.00 0.00 24 1015.4
20260905215306 35 0 8.0 19.3 0.00 0.00 0.00 27 1015.4
20260905215035 35 0 8.0 19.3 0.00 0.00 0.00 23 1015.7
20260905214305 35 0 9.7 20.9 0.00 0.00 0.00 22 1015.8
20260905213802 35 0 9.7 20.9 0.00 0.00 0.00 23 1015.8
20260905213535 35 0 6.4 20.9 0.00 0.00 0.00 23 1015.9